This demonstration page uses our WeatherBlox Daily Observations layout. Learn more.

Left ArrowRight Arrow

Hourly Observations for June 18, 2021

Temp ( °F °C ) Dew Point ( °F °C ) Humidity (%) Winds ( mph kmh ) Pressure ( in mb ) Visibility ( mi km ) Precip ( " mm )
12:56 am 00:56 Clear 77 25 70 21.1 79 79 N 9 15 29.75 1008 10 16 0.00 0.00
1:56 am 01:56 Clear 76 24.4 69 20.6 79 79 NE 10 17 29.75 1007 10 16 0.00 0.00
2:56 am 02:56 Clear 74 23.3 68 20 82 82 NE 10 17 29.74 1007 10 16 0.00 0.00
3:56 am 03:56 Clear 74 23.3 66 18.9 76 76 N 14 22 29.75 1008 10 16 0.00 0.00
4:56 am 04:56 Clear 74 23.3 66 18.9 76 76 NE 15 24 29.70 1006 10 16 0.00 0.00
5:56 am 05:56 Clear 71 21.7 65 18.3 81 81 ENE 9 15 29.75 1007 10 16 0.00 0.00
6:56 am 06:56 Sunny 71 21.7 66 18.9 84 84 NE 8 13 29.79 1009 10 16 0.00 0.00
7:56 am 07:56 Sunny 73 22.8 66 18.9 79 79 ENE 13 20 29.80 1009 10 16 0.00 0.00
8:56 am 08:56 Sunny 76 24.4 67 19.4 74 74 NE 14 22 29.80 1009 10 16 0.00 0.00
9:56 am 09:56 Sunny 81 27.2 68 20 65 65 ENE 16 26 29.79 1009 10 16 0.00 0.00
10:56 am 10:56 Sunny 83 28.3 68 20 61 61 ENE 16 26 29.78 1008 10 16 0.00 0.00
11:18 am 11:18 Sunny with Nearby Thunderstorms 84 29 66 19 55 55 NE 14 22 29.73 1007 9 14 0.00 0.00
11:46 am 11:46 Sunny 82 28 66 19 58 58 E 14 22 29.73 1007 10 16 0.00 0.00
11:56 am 11:56 Sunny 83 28.3 67 19.4 59 59 E 12 19 29.79 1009 10 16 0.00 0.00
12:56 pm 12:56 Sunny 83 28.3 69 20.6 63 63 NNW 14 22 29.84 1011 10 16 0.00 0.00
1:19 pm 13:19 Sunny 84 29 72 22 66 66 ENE 14 22 29.72 1006 10 16 0.00 0.00
1:56 pm 13:56 Sunny 84 28.9 69 20.6 61 61 ESE 18 30 29.75 1008 9 14 0.00 0.00
2:56 pm 14:56 Sunny 85 29.4 69 20.6 59 59 NNE 10 17 29.82 1010 10 16 0.00 0.00
3:56 pm 15:56 Sunny 82 27.8 70 21.1 67 67 E 17 28 29.75 1007 10 16 0.00 0.00
4:56 pm 16:56 Sunny 85 29.4 70 21.1 61 61 ENE 16 26 29.77 1008 10 16 0.00 0.00
5:23 pm 17:23 Sunny with Nearby Thunderstorms 84 29 70 21 62 62 NE 10 17 29.74 1007 10 16 0.00 0.00
5:38 pm 17:38 Sunny 84 29 70 21 62 62 NNE 16 26 29.73 1007 10 16 0.00 0.00
5:56 pm 17:56 Sunny 83 28.3 69 20.6 63 63 NNE 15 24 29.81 1009 10 16 0.00 0.00
6:56 pm 18:56 Sunny 81 27.2 67 19.4 62 62 N 10 17 29.81 1010 10 16 0.00 0.00
7:56 pm 19:56 Sunny 80 26.7 66 18.9 62 62 ENE 9 15 29.79 1009 10 16 0.00 0.00
8:56 pm 20:56 Sunny 78 25.6 65 18.3 64 64 NE 15 24 29.76 1008 10 16 0.00 0.00
9:56 pm 21:56 Clear 74 23.3 64 17.8 71 71 NNE 10 17 29.80 1009 10 16 0.00 0.00
10:56 pm 22:56 Clear 71 21.7 62 16.7 73 73 N 7 11 29.83 1010 10 16 0.00 0.00
11:56 pm 23:56 Clear 70 21.1 60 15.6 71 71 NE 6 9 29.83 1010 10 16 0.00 0.00

Powered by AerisWeather